Other Surface Observations
Issued by NWS Tucson, AZ

Home | Current Version | Previous Version | Text Only | Print | Product List | Glossary On
Versions: 1 2 3 4 5 6 7 8 9 10 11 12 13 14 15 16 17 18 19 20 21 22 23 24 25 26 27 28 29 30 31 32 33 34 35 36 37 38 39 40 41 42 43 44 45 46 47 48 49 50
000
SXUS55 KTWC 210315
OSOTWC

WEATHER ROUNDUP FOR SOUTHEAST ARIZONA
NATIONAL WEATHER SERVICE TUCSON AZ
815 PM MST WED SEP 20 2017

AZZ504>506-514-210415-
LOCATION       SKY/WX    TMP DP  RH WIND       PRES   REMARKS
TUCSON         CLEAR     87  49  26 SW7       29.87R
DAVIS-MONTHAN  CLEAR     85  48  26 W7        29.86R
CHILDRENS PARK N/A      N/A N/A  21 SW6               PIMA CO DEQ
ALVERNON/22ND  N/A       91 N/A N/A SW7               PIMA CO DEQ
CHERRY/GLENN   N/A      N/A N/A N/A N/A               PIMA CO DEQ
TANGERINE      N/A       90 N/A N/A W9                PIMA CO DEQ
CONTL RANCH    N/A       91  39  16 W9                PIMA CO DEQ
GRANT/1ST      N/A       91  46  21 SW7               PIMA CO DEQ
CRAYCROFT/22ND N/A       90  45  21 SW8               PIMA CO DEQ
GOLFLINKS/KOLB N/A       90  45  21 SW9               PIMA CO DEQ
AJO/12TH       N/A       91  47  22 SW7               PIMA CO DEQ
FAIRGROUNDS    N/A       88 N/A N/A W11               PIMA CO DEQ
SAGUARO        N/A       88  47  24 SW4G11            *SABINO CYN
SAN CARLOS     N/A       85  35  17 W4G13             *SAN CARLOS
GREEN VALLEY   N/A       87  48  26 SW10              PIMA CO DEQ
HORSE CAMP CYN N/A       82  46  28 SW12G21           *ARAVAIPA CYN
RINCON MTNS    N/A       59  43  56 SW4G13            *NR MANNING CAMP
$$

AZZ509>511-210415-
LOCATION       SKY/WX    TMP DP  RH WIND       PRES   REMARKS
SAFFORD        CLEAR     84  46  26 NW9       29.85R
STRAY HORSE    N/A       62  39  42 W7G13             *
TRAIL CABIN    N/A       70  41  35 SW3               *N OF GRANVILLE
BLACK HILLS    NOT AVBL
DRY LAKE       N/A       62  37  40 W3                *NATANES MTNS
NOON CREEK     N/A       78  46  32 NW3G14            *PINALENO MTNS
COLUMBINE      N/A       54  43  67 SW5G10            *PINALENO MTNS
GUTHRIE        N/A       73  39  29 W9G17             *SW OF GUTHRIE
$$

AZZ502-503-513-210415-
LOCATION       SKY/WX    TMP DP  RH WIND       PRES   REMARKS
NOGALES        CLEAR     77  57  50 S7        29.97R
SELLS          N/A       84  34  17 NE5G13            *
SASABE         N/A       79  40  25 SW8G12            *ALTAR VLY
HOPKINS        N/A       64  48  56 W8G18             *SANTA RITA MTNS
CARR CYN       N/A       72  53  51 S3                *W OF HEREFORD
$$

AZZ507-508-512-210415-
LOCATION       SKY/WX    TMP DP  RH WIND       PRES   REMARKS
SIERRA VISTA   CLEAR     77  53  42 SW7       30.03R
DOUGLAS        CLEAR     77  51  40 W9        29.99R
EMPIRE MTNS    NOT AVBL
MULESHOE RANCH N/A       80  46  30 W5G19             *PRESERVE
HEADQUARTERS   N/A       74  44  34 W2                *CHIRICAHUA MTNS
$$

.............................NOTES.............................
THIS IS AN AUTOMATED COLLECTIVE WITH MINIMAL QUALITY CONTROL.
PIMA CO DEQ SITES HAVE NONSTANDARD WIND SENSOR HEIGHTS.
PIMA CO DEQ SITES DO NOT REPORT WIND GUSTS.
* INDICATES WIND SENSORS LOCATED AT 20 FEET INSTEAD OF 33 FEET.
..............................KEY..............................
SKY/WX - SKY CONDITION/WEATHER
TMP    - TEMPERATURE IN FAHRENHEIT
DP     - DEWPOINT IN FAHRENHEIT
RH     - RELATIVE HUMIDITY IN PERCENT
WIND   - DIRECTION AND SPEED IN MILES PER HOUR (MPH)
VRB    - VARIABLE WIND DIRECTION
PRES   - MEAN SEA LEVEL PRESSURE IN INCHES OF MERCURY
         F - FALLING PRESSURE   R - RISING PRESSURE
         S - STEADY PRESSURE
VSB    - VISIBILITY IN MILES
HX     - HEAT INDEX IN FAHRENHEIT
WCI    - WIND CHILL INDEX IN FAHRENHEIT
N/A    - NOT AVAILABLE
AFB    - AIR FORCE BASE
         DAVIS-MONTHAN IS DAVIS-MONTHAN AIR FORCE BASE
CYN    - CANYON
MTNS   - MOUNTAINS
NCA    - NATIONAL CONSERVATION AREA
NR     - NEAR
VLY    - VALLEY
CONTL  - CONTINENTAL
PIMA CO DEQ - PIMA COUNTY DEPT OF ENVIRONMENTAL QUALITY



USA.gov is the U.S. government's official web portal to all federal, state and local government web resources and services.